Regional Weather Roundup
Issued by NWS

Home | Current Version | Previous Version | Graphics & Text | Print | Product List | Glossary On
Versions: 1 2 3 4 5 6 7 8 9 10 11 12 13 14 15 16 17 18 19 20 21 22 23 24 25 26 27 28 29 30 31 32 33 34 35 36 37 38 39 40 41 42 43 44 45 46 47 48 49 50
000
ASUS45 KBOU 251207
RWRCO

WEATHER ROUNDUP FOR COLORADO
NATIONAL WEATHER SERVICE DENVER/BOULDER CO
500 AM MST TUE NOV 25 2014

NOTE: "FAIR" INDICATES FEW OR NO CLOUDS BELOW 12000 FEET WITH NO
SIGNIFICANT WEATHER AND/OR OBSTRUCTIONS TO VISIBILITY.

COZ001>005-013-030-031-251300-
...NORTHWEST COLORADO...

CITY           SKY/WX    TMP DP  RH WIND       PRES   REMARKS
CRAIG          CLOUDY    14   8  77 CALM      30.28F
HAYDEN         CLOUDY    16   9  73 SE6       30.25F WCI   7
MEEKER         CLOUDY    15  11  83 CALM      30.31F
MOUNT WERNER   NOT AVBL
STEAMBOAT SPGS CLOUDY    11   8  88 CALM      30.25F
WALDEN         CLOUDY    19   7  58 S16G24    30.11F WCI   5
$$

COZ006>008-011-251300-
...WEST CENTRAL VALLEYS...

CITY           SKY/WX    TMP DP  RH WIND       PRES   REMARKS
GRAND JUNCTION CLOUDY    24  15  68 SE12      30.39S WCI  13
MONTROSE       CLOUDY    19  12  74 SE6       30.41S WCI  11
EAGLE          CLOUDY    14  12  92 E3        30.35F
RIFLE          CLOUDY    15  11  83 E5        30.38F WCI   8
DELTA          CLOUDY    22  16  75 CALM      30.42S
NUCLA          MOCLDY    21  10  63 CALM      30.44R
$$

COZ017>023-064>068-251300-
...SOUTHWEST COLORADO...

CITY           SKY/WX    TMP DP  RH WIND       PRES   REMARKS
DURANGO        PTCLDY    10   6  84 NE3       30.35R
CORTEZ         CLEAR     11   6  81 NE6       30.40F WCI   1
PAGOSA SPRINGS PTCLDY    11   2  68 CALM      30.33S
TELLURIDE      NOT AVBL
WOLF CREEK PAS MOCLDY     5  -9  51 MISG      30.20R
$$

COZ009-010-012-014-032>034-037-058>063-251300-
...CENTRAL COLORADO...

CITY           SKY/WX    TMP DP  RH WIND       PRES   REMARKS
ASPEN          CLOUDY    15   8  73 S5        30.29F WCI   8
BUENA VISTA    CLOUDY    13   5  71 CALM      30.17F
COPPER MTN       N/A      7   0  72 W25G33    30.10F WCI -15
BERTHOUD PASS  NOT AVBL
COTTONWOOD PAS CLOUDY    19   0  42 NW8       30.08F WCI   9
GUNNISON       CLOUDY     0  -6  78 CALM      30.36F
KREMMLING      CLOUDY    21  10  63 W14       30.24F WCI   8
LEADVILLE      CLOUDY    11   2  67 NW17G26   30.18F WCI  -6
MONARCH PASS   CLOUDY     1  -4  78 MISG      30.17S
SALIDA         CLOUDY    24   3  40 NW8G18    30.26F WCI  15
SUNLIGHT       CLOUDY   N/A N/A N/A CALM      30.22S
WILKERSON PASS NOT AVBL
$$

COZ069>075-251300-
...SAN LUIS VALLEY/SANGRE DE CRISTO MOUNTAINS...

CITY           SKY/WX    TMP DP  RH WIND       PRES   REMARKS
ALAMOSA        MOCLDY     6  -1  73 SW6       30.29F WCI  -4
LA VETA PASS   CLEAR      9   1  72 MISG      30.11F
SAGUACHE       NOT AVBL
$$

COZ035-036-038>040-251300-
...NORTHERN COLORADO FRONT RANGE...

CITY           SKY/WX    TMP DP  RH WIND       PRES   REMARKS
DENVER INTL AP PTCLDY    26   9  48 S14       30.06F WCI  14
DMNS CITY PARK   N/A     27   5  40 S7        30.07F WCI  19
AURORA         PTCLDY    25   8  48 S13       30.07F WCI  13
FRONT RANGE AP PTCLDY    28  12  50 S17       30.07F WCI  16
ERIE MUNI ARPT MOCLDY    35   7  30 W12G21    30.05F WCI  27
BOULDER MUN AP MOCLDY    36   5  27 W17G33    30.03F
CENTENNIAL     MOCLDY    25   7  46 S8        30.08F WCI  16
BROOMFIELD     MOCLDY    34   7  32 W28G43    30.06F WCI  20
FORT COLLINS   CLOUDY    21  16  79 NW3       30.05F
LONGMONT       CLOUDY    25  15  65 E5        30.06F WCI  19
$$

COZ041-046-047-076>085-087-088-251300-
...PIKES PEAK/PALMER DIVIDE AND SOUTHERN FOOTHILLS...

CITY           SKY/WX    TMP DP  RH WIND       PRES   REMARKS
COLO. SPRINGS  PTCLDY    18   7  62 NE5       30.11F WCI  11
A. F. ACADEMY  PTCLDY    27  -1  30 VRB6      30.09F WCI  20
ELLICOTT       NOT AVBL
FALCON         NOT AVBL
FORT CARSON    PTCLDY    17  10  71 N3        30.11F
LIMON          PTCLDY     8   4  83 NW3       30.12F
MONUMENT HILL  PTCLDY    18   3  53 SW12      30.07F WCI   5
TRINIDAD       CLEAR     19   9  65 W17       30.18F WCI   4
$$

COZ042>045-048>051-090-091-251300-
...NORTHEAST COLORADO...

CITY           SKY/WX    TMP DP  RH WIND       PRES   REMARKS
GREELEY ARPT   MOCLDY    18   9  68 CALM      30.06F
AKRON          PTCLDY    20  13  74 SW10      30.09F WCI   9
BURLINGTON     PTCLDY    16  10  77 SW9       30.14F WCI   4
WRAY           CLEAR     19  15  86 W8        30.12F WCI   9
STERLING       PTCLDY    23  19  86 SW10      30.09F WCI  12
HOLYOKE        CLEAR     23  18  80 W10       30.10F WCI  12
FORT MORGAN    PTCLDY    19  12  73 S3        30.09F
$$

COZ086-089-092>099-251300-
...SOUTHEAST COLORADO...

CITY           SKY/WX    TMP DP  RH WIND       PRES   REMARKS
PUEBLO         CLEAR     20  12  71 CALM      30.17F
LA JUNTA       CLEAR     25  17  72 SW12      30.18F WCI  14
LAMAR          CLEAR     16  13  88 SW6       30.20F WCI   7
SPRINGFIELD      N/A     21  16  81 W10       30.21F WCI  10
$$


USA.gov is the U.S. government's official web portal to all federal, state and local government web resources and services.